SL-12 DEB, 41641

Orbit data source: Space-Track

SL-12 DEB, 41641 is space debris in HEO originally from a launch on Thu, 25 Dec 2008 UTC launched from the Tyuratam Missile And Space Complex (TTMTR). Debris objects in space refer to the collection of defunct objects orbiting the Earth. Examples of debris include non-operational satellites, rocket bodies, and fragments generated from explosions, collisions, or faulty payload assembly.

Loading next visibility...
Identifier
41641, 2008-067M
Orbit
HEO
Country
Flag of CISCIS
Related business
Manufacturer
RKKE
Mission
Spacecraft
Bus & Motor
Unknown
Mass
Unknown
Launch date (UTC)
2008-12-25 (17 years ago)
Launch vehicle
Unknown
Launch site
Tyuratam Missile And Space Complex (TTMTR)
Object type
Payload
Rocket body
Debris
Shape & HBR
Unknown shape, 0.6 m
Radar Cross Section
Medium (>0.1 m² and <1 m²)

Expand to show TLE details & history
Last TLE update: 5 days ago

TLE from 5 days ago
0 SL-12 DEB
1 41641U 08067M   26031.66906837  .00000113  00000-0  79324-3 0  9997
2 41641  65.0624 183.1763 5551235 291.5636  19.5357  4.29367195149075
Epoch: 2026-01-31T16:03Z
TLE epoch observation values (Epoch: 2026-01-31T16:03:27.507Z)
Latitude
0.00013°
Longitude
171.42552°
Altitude
2,815.617 km
Speed
7.861 km/s
True Right ascension
12h 12m 43s
True Declination
0° 00' 00"
Sunlit
Object was in daylight at epoch
Visualization orbit readout
Latitude
Unknown
Longitude
Unknown
Altitude
Unknown
Speed
Unknown
Apparent Right ascension
Unknown
Apparent Declination
Unknown
Sunlit
N/A
Visualization observer readout
Local Sidereal Time
12:50:44
Azimuth
Unknown
Elevation
Unknown
Doppler factor
Unknown
Orbital elements
Apogee altitude
18,486.612 km
Perigee altitude
734.959 km
Semi-major axis
15,988.923 km
Eccentricity
0.55512
Inclination
65.0624°
RAAN
183.1763°
Arg. of periapsis
291.5636°
True anomaly
68.42114°
Mean anomaly
19.5357°
Eccentric anomaly
39.96581°
Mean motion
1.07353 °/min
Orbital period
335.34 mins
BSTAR
0.00079324
Loading maneuver chart data...
Computing Atmospheric mass density...
Loading historical data...
Loading historical data...
Loading historical data...
Loading historical data...
Loading historical data...
Loading historical data...
Loading historical data...

Documentation

Showing up to 5 results
|